CZ-4C R/B (47537 NORAD) Tracking and Keplerian Element Data

This shows tracking and keplerian element data for the satellite.

Feedback or suggestion? Click here.




ElementValue
Catalog47537
NameCZ-4C R/B
Epoch Orbit404
Epoch Day58.71392535
Epoch Year2021
RAAN69.9067
Inclination63.4578
Eccentricity0.0118345
Argument of Perigee27.3692
Mean Anonmoly333.3509
Mean Motion13.67780969
Decay Rate-7.8E-07
L11 47537U 21007F 21058.71392535 -.00000078 00000-0 20141-4 0 9995
L22 47537 63.4578 69.9067 0118345 27.3692 333.3509 13.67780969 4049

Live tracking and technical data element details for CZ-4C R/B (NORAD 47537). CZ-4C R/B can be tracked NOW for your location showing map with azimuth and elevation plus other details from your city location.

Track the satellite on the map from your city or location and see movement details for azimuth, elevation, latitude, longitude, range, height, and movement on the map or in text.







IsCatalogInMostPopularTable: catalog: 47537, numindb: 15
Update: records affected: 1



GetName: 47537 CZ-4C R/B

Hit Count: updated at: Tue, 13 Apr 2021 05:17:29 GMT